Jackson, KY

11:16 AM EDT on August 18, 2017 (GMT -0400)
Carroll

Weather History for KJKL - April, 2012

Change the Weather History Date:

Sunday, April 8, 2012

  Actual Average Record
Temperature  
Mean Temperature 57 °F 55 °F  
Max Temperature 69 °F 66 °F 87 °F (2001)
Min Temperature 45 °F 44 °F 21 °F (2007)
Degree Days  
Heating Degree Days 8 11  
Month to date heating degree days 58 95  
Since 1 July heating degree days 3113 3948  
Cooling Degree Days 0 1  
Month to date cooling degree days 8 8  
Year to date cooling degree days 70 15  
Growing Degree Days 6 (Base 50)    
Moisture  
Dew Point 31 °F    
Average Humidity 47    
Maximum Humidity 70    
Minimum Humidity 24    
Precipitation  
Precipitation 0.00 in 0.13 in 1.00 in (2011)
Month to date precipitation 0.93 0.99  
Year to date precipitation 13.76 12.47  
Snow  
Snow 0.00 in 0.10 in 0.40 in (1982)
Month to date snowfall T 0.5  
Since 1 July snowfall 14.2 23.0  
Snow Depth 0.00 in    
Sea Level Pressure  
Sea Level Pressure 30.14 in    
Wind  
Wind Speed 4 mph (WNW)    
Max Wind Speed 16 mph    
Max Gust Speed 24 mph    
Visibility 10 miles    
Events      
T = Trace of Precipitation, MM = Missing Value Source: NWS Daily Summary

Daily Weather History Graph

Daily Weather History Graph

Search for Another Location

Airport or City:

Trip Planner

Search our weather history database for the weather conditions in past years. The results will help you decide how hot, cold, wet, or windy it might be!

Date:

Astronomy

Apr. 08, 2012 Rise Set
Actual Time 7:07 AM EDT 8:02 PM EDT
Civil Twilight 6:40 AM EDT 8:29 PM EDT
Nautical Twilight 6:09 AM EDT 9:01 PM EDT
Astronomical Twilight 5:36 AM EDT 9:34 PM EDT
Moon 10:44 PM EDT (4/8) 8:06 AM EDT (4/8)
Length of Visible Light 13h 48m
Length of Day
12h 55m
Waning Gibbous, 95% of the Moon is Illuminated
Apr 8
Waning Gibbous
Apr 13
Last Quarter
Apr 21
New
Apr 29
First Quarter
May 5
Full

Hourly Weather History & Observations

Time (EDT) Temp. Dew Point Humidity Pressure Visibility Wind Dir Wind Speed Gust Speed Precip Events Conditions
12:53 AM 54.0 °F 23.0 °F 30% 30.17 in 10.0 mi Calm Calm - N/A   Clear
1:53 AM 52.0 °F 21.9 °F 31% 30.16 in 10.0 mi Calm Calm - N/A   Clear
2:53 AM 48.0 °F 24.1 °F 39% 30.14 in 10.0 mi SSW 3.5 mph - N/A   Clear
3:53 AM 51.1 °F 24.1 °F 35% 30.15 in 10.0 mi Calm Calm - N/A   Overcast
4:53 AM 46.0 °F 30.0 °F 54% 30.14 in 10.0 mi Calm Calm - N/A   Mostly Cloudy
5:53 AM 48.0 °F 25.0 °F 41% 30.16 in 10.0 mi Calm Calm - N/A   Overcast
6:53 AM 46.9 °F 28.9 °F 50% 30.15 in 10.0 mi Calm Calm - N/A   Mostly Cloudy
7:53 AM 45.0 °F 36.0 °F 71% 30.17 in 10.0 mi Calm Calm - N/A   Overcast
8:53 AM 51.1 °F 34.0 °F 52% 30.17 in 10.0 mi Calm Calm - N/A   Overcast
9:53 AM 53.1 °F 34.0 °F 48% 30.16 in 10.0 mi Calm Calm - N/A   Overcast
10:53 AM 57.0 °F 35.1 °F 44% 30.16 in 10.0 mi Calm Calm - N/A   Overcast
11:53 AM 60.1 °F 35.1 °F 39% 30.16 in 10.0 mi Variable 6.9 mph - N/A   Overcast
12:53 PM 63.0 °F 39.9 °F 43% 30.15 in 10.0 mi Variable 6.9 mph - N/A   Overcast
1:53 PM 64.0 °F 41.0 °F 43% 30.15 in 10.0 mi WNW 10.4 mph 19.6 mph N/A   Scattered Clouds
2:53 PM 66.9 °F 41.0 °F 39% 30.13 in 10.0 mi Variable 5.8 mph 16.1 mph N/A   Mostly Cloudy
3:53 PM 66.9 °F 39.0 °F 36% 30.12 in 10.0 mi West 13.8 mph 19.6 mph N/A   Clear
4:53 PM 66.0 °F 28.0 °F 24% 30.11 in 10.0 mi WNW 9.2 mph 19.6 mph N/A   Clear
5:53 PM 66.0 °F 30.9 °F 27% 30.12 in 10.0 mi NNW 9.2 mph - N/A   Clear
6:53 PM 63.0 °F 27.0 °F 26% 30.12 in 10.0 mi Variable 6.9 mph 18.4 mph N/A   Clear
7:53 PM 60.1 °F 27.0 °F 28% 30.12 in 10.0 mi NNW 9.2 mph 16.1 mph N/A   Clear
8:53 PM 57.0 °F 27.0 °F 32% 30.12 in 10.0 mi NW 5.8 mph - N/A   Clear
9:53 PM 55.0 °F 28.0 °F 35% 30.14 in 10.0 mi NW 4.6 mph - N/A   Clear
10:53 PM 54.0 °F 28.0 °F 37% 30.13 in 10.0 mi WNW 3.5 mph - N/A   Clear
11:53 PM 54.0 °F 28.0 °F 37% 30.14 in 10.0 mi NW 4.6 mph - N/A   Clear